This demonstration page uses our WeatherBlox Daily Observations layout. Learn more.

Left ArrowRight Arrow

53.62937, 11.41316

Hourly Observations for May 29, 2019

Temp ( °F °C ) Dew Point ( °F °C ) Humidity (%) Winds ( mph kmh ) Pressure ( in mb ) Visibility ( mi km ) Precip ( " mm )
12:20 am 00:20 Mostly Clear 46 8 39 4 76 76 W 3 6 29.97 1015 7 11 N/A
12:50 am 00:50 Mostly Clear 45 7 37 3 76 76 W 3 6 29.97 1015 7 11 N/A
6:50 am 06:50 Mostly Sunny 45 7 39 4 81 81 VRB 1 2 30.09 1019 7 11 N/A
7:20 am 07:20 Mostly Sunny 46 8 39 4 76 76 VRB 2 4 30.09 1019 7 11 N/A
7:50 am 07:50 Mostly Sunny 48 9 39 4 71 71 W 5 7 30.12 1020 7 11 N/A
8:20 am 08:20 Mostly Sunny 50 10 39 4 67 67 VRB 3 6 30.12 1020 30 48 N/A
8:50 am 08:50 Mostly Sunny 50 10 36 2 58 58 VRB 2 4 30.12 1020 30 48 N/A
9:20 am 09:20 Mostly Sunny 50 10 36 2 58 58 WNW 6 9 30.15 1021 30 48 N/A
9:50 am 09:50 Partly Cloudy 52 11 37 3 58 58 W 6 9 30.15 1021 30 48 N/A
10:20 am 10:20 Partly Cloudy 54 12 34 1 47 47 VRB 3 6 30.15 1021 30 48 N/A
10:50 am 10:50 Partly Cloudy 52 11 34 1 50 50 VRB 5 7 30.15 1021 30 48 N/A
11:20 am 11:20 Partly Cloudy 54 12 34 1 47 47 WNW 5 7 30.18 1022 30 48 N/A
11:50 am 11:50 Partly Cloudy 54 12 36 2 51 51 W 5 7 30.18 1022 30 48 N/A
12:20 pm 12:20 Partly Cloudy 54 12 36 2 51 51 WNW 6 9 30.18 1022 30 48 N/A
12:50 pm 12:50 Partly Cloudy 54 12 37 3 54 54 WSW 8 13 30.18 1022 30 48 N/A
1:20 pm 13:20 Mostly Sunny 54 12 36 2 51 51 WSW 8 13 30.18 1022 7 11 N/A
1:50 pm 13:50 Mostly Sunny 55 13 37 3 51 51 W 5 7 30.18 1022 30 48 N/A
2:20 pm 14:20 Partly Cloudy 57 14 37 3 48 48 VRB 5 7 30.18 1022 30 48 N/A
2:50 pm 14:50 Partly Cloudy 55 13 37 3 51 51 VRB 3 6 30.18 1022 30 48 N/A
3:20 pm 15:20 Partly Cloudy 55 13 37 3 51 51 W 5 7 30.18 1022 30 48 N/A
3:50 pm 15:50 Mostly Sunny 57 14 36 2 44 44 VRB 6 9 30.18 1022 7 11 N/A
4:20 pm 16:20 Mostly Sunny 57 14 37 3 48 48 W 6 9 30.18 1022 7 11 N/A
4:50 pm 16:50 Mostly Sunny 57 14 36 2 44 44 WNW 6 9 30.18 1022 7 11 N/A
5:20 pm 17:20 Mostly Sunny 59 15 37 3 45 45 VRB 5 7 30.18 1022 7 11 N/A
5:50 pm 17:50 Mostly Sunny 59 15 37 3 45 45 VRB 3 6 30.18 1022 7 11 N/A
6:20 pm 18:20 Mostly Sunny 59 15 36 2 42 42 WNW 5 7 30.18 1022 7 11 N/A
6:50 pm 18:50 Mostly Sunny 61 16 34 1 36 36 W 5 7 30.18 1022 7 11 N/A
7:20 pm 19:20 Mostly Sunny 59 15 32 0 36 36 WSW 8 13 30.18 1022 7 11 N/A
7:50 pm 19:50 Mostly Sunny 59 15 32 0 36 36 W 3 6 30.18 1022 7 11 N/A
8:20 pm 20:20 Mostly Sunny 59 15 32 0 36 36 VRB 2 4 30.18 1022 7 11 N/A
8:50 pm 20:50 Mostly Sunny 57 14 37 3 48 48 VRB 1 2 30.21 1023 7 11 N/A

Powered by AerisWeather